Location: Barrio Las Umbrías
(40.4173°N, 4.8685°W)
Time: 13:38:45
(UTC+00:00)

Cosmos 2278 Rocket - Pass Details

Date: 17 August 2022
Orbit: 842 x 845 km, 71.0° (Epoch: 28 September)

Event Time Altitude Azimuth Distance (km) Brightness Sun altitude
Exits shadow 21:54:57 42° 63° (ENE) 1,184 2.8 -26.3°
Drops below altitude 10° 21:59:01 10° 33° (NNE) 2,466 4.8 -26.8°
Sets 22:01:30 0° 29° (NNE) 3,405 5.6 -27.1°
